Lapse_Rate
8.1 7.9 7.7 7.3 7.0 6.8 7.0 7.4 7.5 7.2 7.0 7.0 6.9 6.7 6.9 6.9 6.8 6.9 6.8 6.7 6.5 6.5 6.4 6.3 6.1 6.1 6.0 6.2 6.2 6.3 6.2 6.3
7.9 7.7 7.5 7.3 7.0 6.9 7.0 7.6 7.8 7.4 7.1 7.1 7.1 7.0 7.0 6.8 6.7 6.7 6.7 6.6 6.6 6.5 6.4 6.2 6.3 6.3 6.1 5.9 6.2 6.3 6.5 6.5
7.9 7.8 7.6 7.4 7.4 7.3 7.2 7.3 7.7 7.7 7.5 7.0 7.0 7.1 7.0 6.9 6.9 6.8 6.8 6.7 6.6 6.5 6.4 6.3 6.3 6.2 5.9 5.8 6.1 6.3 6.7 6.4
8.2 7.9 7.8 7.7 7.6 7.5 7.5 7.5 7.4 7.5 7.2 7.1 7.2 7.0 7.1 7.0 7.1 7.1 7.1 6.9 6.8 6.5 6.4 6.3 6.4 6.1 5.9 6.0 6.5 6.6 6.7 6.6
8.1 8.0 8.2 7.8 7.8 7.7 7.5 7.4 7.3 7.2 7.2 7.4 7.5 7.3 7.2 7.2 7.2 7.1 6.9 6.9 6.6 6.5 6.4 6.5 6.3 5.9 6.0 5.9 6.7 6.7 6.7 6.5
8.2 8.3 8.2 8.0 7.9 7.6 7.2 7.2 7.0 7.1 7.5 7.5 7.5 7.6 7.6 7.4 6.9 7.0 6.9 6.8 6.7 6.4 6.4 6.5 6.3 6.2 5.6 6.2 6.6 6.7 6.6 6.6
8.6 8.7 8.5 8.5 8.5 8.4 8.2 7.5 6.9 6.9 7.1 7.3 7.2 7.0 6.9 6.9 7.0 7.0 7.0 6.8 6.6 6.4 6.6 6.6 6.4 5.6 4.8 6.6 6.6 6.6 6.6 6.5
8.3 8.3 8.5 8.3 8.1 8.0 7.8 7.5 7.1 7.0 6.9 6.7 6.8 7.0 7.1 7.1 7.0 7.0 6.9 6.9 6.4 6.4 6.4 6.4 6.2 5.9 6.6 6.6 6.7 6.6 6.4 6.3
8.6 8.4 8.1 7.8 7.7 7.3 7.2 7.0 6.9 6.9 6.8 6.9 6.8 6.9 6.9 6.9 6.9 6.7 6.8 6.5 6.2 6.3 6.3 6.5 6.2 6.5 6.4 6.4 6.5 6.3 6.1 6.1
8.2 7.8 7.5 7.7 7.5 7.1 6.9 6.9 6.9 7.0 7.0 6.9 6.8 6.7 6.6 6.6 6.6 6.4 6.8 5.9 5.7 6.0 6.2 6.4 6.4 6.4 6.2 6.3 6.2 6.0 6.0 5.8
7.6 7.1 7.0 7.1 6.9 7.1 7.2 7.2 7.0 6.8 6.7 6.8 6.6 6.6 6.6 6.6 6.5 6.5 6.1 6.3 6.1 6.1 6.2 6.4 6.2 5.9 6.1 6.1 5.8 6.0 6.0 6.1
7.6 7.2 6.9 7.0 6.8 7.0 7.0 7.2 7.1 7.1 7.0 6.9 6.5 6.7 6.5 6.5 6.3 6.1 6.1 5.8 5.5 5.9 6.1 6.2 6.0 6.1 6.1 5.9 6.0 5.8 5.6 5.5
7.2 7.0 6.8 6.8 6.8 6.8 6.9 7.1 7.2 7.2 7.0 6.3 6.2 6.5 6.5 6.3 6.3 6.1 6.0 6.0 5.8 6.0 6.2 6.0 5.7 5.8 5.8 5.6 5.5 5.6 5.2 5.5
7.2 6.9 6.7 6.6 6.5 6.2 6.1 6.3 6.6 6.7 7.0 6.8 6.6 6.2 6.1 6.2 6.1 6.0 5.6 5.9 6.0 6.0 6.0 5.7 5.6 5.6 5.4 5.3 5.1 5.0 4.7 5.0
7.4 7.2 7.0 6.9 6.6 6.4 6.3 6.1 6.1 6.1 6.0 6.0 6.1 6.3 6.3 6.3 5.9 5.9 5.7 5.6 5.8 5.9 5.6 5.1 5.1 5.2 4.8 4.6 4.8 4.7 4.9 5.1
7.5 7.3 7.2 7.0 7.0 6.8 6.5 6.4 6.2 6.0 5.9 5.9 6.3 6.0 6.1 6.2 6.1 5.9 5.9 5.9 5.9 5.7 5.6 5.5 5.5 5.2 4.9 4.8 4.8 4.7 5.0 5.2
7.2 7.1 7.1 7.2 7.2 7.0 6.8 6.5 6.3 6.5 6.4 6.2 6.1 6.0 5.8 6.0 6.2 6.2 6.1 6.2 6.1 6.1 5.8 5.3 5.2 4.9 4.6 5.1 4.5 4.6 5.1 5.5
7.1 7.3 7.3 7.0 6.9 7.0 7.0 6.8 6.9 6.8 6.7 6.3 6.2 6.1 6.2 6.3 6.2 6.2 6.3 6.0 5.8 5.8 5.5 5.5 5.2 4.9 5.0 4.8 4.3 5.0 5.4 6.0
7.1 7.4 7.2 7.1 7.1 7.2 7.1 7.2 7.0 6.9 6.6 6.3 6.2 6.2 6.3 6.4 6.3 6.2 6.0 5.7 5.5 5.6 5.2 4.9 4.6 5.1 5.2 4.7 4.8 5.4 5.8 6.0
Wind_Speed
10 11 10 13 21 22 20 17 18 17 11 7 7 9 4 9 8 10 15 14 15 11 8 7 9 4 5 3 3 2 2 3
10 10 10 11 18 21 21 18 18 13 11 10 9 11 8 6 4 12 11 12 15 11 6 5 7 7 5 5 4 4 2 3
10 10 10 13 19 21 20 18 19 16 12 12 9 8 4 6 3 8 15 13 12 10 8 7 8 5 6 6 5 3 2 3
8 8 7 7 13 19 19 19 20 16 14 10 5 4 3 4 6 8 9 11 15 14 11 6 7 6 5 6 6 6 4 3
6 8 7 9 8 9 10 12 14 12 15 14 14 13 11 11 10 8 6 14 12 15 12 9 7 5 6 5 5 4 4 4
10 9 7 4 8 8 10 13 13 12 15 15 14 15 10 8 7 10 10 10 12 13 9 7 6 6 6 7 6 5 4 4
8 8 9 7 6 6 6 9 14 13 15 14 14 13 9 8 9 10 9 10 9 6 7 6 6 6 7 5 6 6 5 5
9 9 7 8 7 5 5 6 5 11 13 11 12 11 11 14 13 11 10 6 3 9 7 7 6 6 6 6 5 5 5 4
9 9 8 7 8 7 5 4 2 7 8 10 9 10 9 9 7 6 7 8 7 6 6 7 7 6 6 6 4 4 4 4
9 9 9 9 8 8 8 7 7 7 8 7 6 7 10 7 7 6 7 6 7 9 8 7 7 7 6 6 4 4 3 3
7 8 9 8 8 8 8 8 7 5 5 5 5 6 7 8 7 9 9 8 10 9 8 7 7 7 6 6 3 4 5 5
8 8 8 10 10 10 11 10 10 9 9 8 7 7 9 9 10 8 7 6 8 10 9 8 7 6 5 4 4 5 6 5
8 8 9 9 10 12 13 12 12 13 12 11 11 8 6 7 6 7 8 10 7 10 8 8 7 6 5 4 3 5 5 6
8 7 10 10 10 12 13 14 15 14 13 12 11 8 7 7 10 10 7 8 9 8 7 7 6 6 4 3 4 4 5 5
10 9 10 10 12 12 11 12 14 14 12 13 12 11 12 10 8 7 9 9 8 7 6 6 6 4 3 3 4 3 3 4
9 12 13 13 12 11 9 8 8 8 10 9 11 11 10 11 10 9 8 10 8 7 7 6 5 4 3 5 2 3 6 6
11 11 16 16 15 9 7 7 7 7 8 9 8 9 10 10 9 10 11 9 9 8 7 6 6 3 8 5 2 4 5 5
13 11 7 7 8 8 8 8 7 8 8 7 9 11 10 10 11 12 11 10 8 7 7 6 6 4 7 2 3 3 5 3
10 4 4 7 6 7 7 6 5 6 7 7 9 10 10 10 11 11 10 8 9 7 6 6 5 3 3 5 5 5 4 5
Wind_Direction
199 197 185 162 164 168 167 168 170 170 167 167 198 217 207 196 177 182 190 190 186 174 178 189 191 182 198 172 163 165 155 181
200 199 181 165 161 167 163 164 169 162 171 171 190 206 211 202 173 175 181 184 196 187 183 188 196 193 167 156 127 143 205 178
205 198 193 172 166 173 169 167 164 173 174 179 184 190 194 211 183 194 193 196 200 199 188 198 201 146 157 153 148 169 193 158
206 202 183 137 160 170 173 169 172 173 169 168 139 134 143 189 209 214 214 200 204 202 197 188 174 167 169 168 162 164 179 234
124 125 131 126 119 118 160 169 170 170 170 177 181 187 195 204 204 202 210 208 214 201 198 173 173 162 167 166 169 169 150 195
122 117 122 117 130 145 148 172 172 181 184 188 191 195 201 186 183 182 209 211 213 207 178 185 186 174 162 166 162 179 174 168
122 123 121 117 111 106 119 122 191 182 184 190 196 201 193 182 191 192 205 209 208 203 183 203 179 154 169 177 180 185 188 194
128 127 130 124 136 118 87 75 128 171 182 186 192 199 199 203 198 203 189 182 184 188 189 189 168 169 168 165 184 199 195 196
167 171 165 154 154 158 145 124 129 160 174 195 196 190 202 211 205 201 185 185 168 170 195 186 166 159 165 181 180 202 192 220
177 160 168 168 173 178 180 197 203 201 191 191 198 194 200 206 185 165 159 161 172 182 185 180 158 163 176 171 181 198 202 233
201 171 164 174 166 183 178 186 206 211 218 218 210 207 206 194 176 173 170 173 171 184 183 164 156 158 168 174 185 207 209 227
186 181 184 176 175 177 190 190 197 203 202 203 209 220 214 187 179 183 175 175 162 162 151 149 153 166 180 185 218 230 235 238
199 196 186 185 189 186 188 193 199 204 201 196 205 213 184 174 178 168 162 158 150 146 146 150 157 153 167 183 233 247 253 256
217 197 199 200 195 191 195 195 200 203 199 195 198 190 182 183 167 153 156 148 140 136 132 135 151 164 146 221 247 283 285 273
224 216 213 209 208 209 208 196 198 201 192 188 193 189 177 167 156 153 157 146 140 137 137 141 142 149 176 236 27 289 267 269
231 222 220 221 220 213 205 198 186 183 186 178 187 178 165 155 153 152 143 144 140 134 131 139 136 163 161 79 282 294 280 278
256 235 224 225 225 216 193 189 200 168 177 184 165 156 154 157 146 150 145 140 138 135 134 140 171 173 128 161 193 262 278 265
282 265 239 198 191 172 163 173 173 171 175 167 161 162 158 155 151 150 150 145 137 140 147 164 152 152 124 172 181 225 241 280
252 222 113 126 123 111 121 126 123 164 171 159 153 157 146 147 151 155 147 145 142 140 146 157 142 91 200 175 207 246 256 244